Location: Newark
(29.0900°N, 59.8100°E)
Time: 09:55:47
(UTC+00:00)

Hubble Space Telescope - Visible Passes

Search period start: 19 July 2019 00:00
Search period end: 29 July 2019 00:00
Orbit: 536 x 540 km, 28.5° (Epoch: 18 July)

Date Brightness Start Highest point End Pass type
(mag) Time Alt. Az. Time Alt. Az. Time Alt. Az.
25 Jul 3.3 23:19:24 12° SE 23:19:24 12° SE 23:20:19 10° SE visible
26 Jul 3.2 23:09:24 14° SE 23:09:24 14° SE 23:10:33 10° ESE visible
27 Jul 1.3 00:44:52 10° WSW 00:48:50 46° SSE 00:52:49 10° E visible
27 Jul 3.2 22:59:23 15° ESE 22:59:23 15° ESE 23:00:27 10° ESE visible
28 Jul 1.1 00:34:43 13° WSW 00:38:17 55° SSE 00:42:19 10° E visible
28 Jul 3.3 22:49:21 14° ESE 22:49:21 14° ESE 22:50:13 10° ESE visible
